CPA415 RKSI-VHHH

Flight info

Callsign CPA415
Flight time 3h 16m
Altitude 34000
Route BOPTA2Y BOPTA Z51 BEDES Y711 MUGUS Y742 SALMI Q11 DRAKE A1 ELATO V522 ABBEY
Aircraft B77W/H-SDE1E2E3FGHIJ2J3J4J5M1RWXY/LB1D1

Departure

Time 2026-05-04 01:03
Airport Incheon International Airport (RKSI)

Arrival

Time 2026-05-04 04:19
Airport Hong Kong International Airport (VHHH)
Time Latitude Longitude Altitude Speed Heading
2026-05-04 00:47 37.45859 126.44824 37 ft 0 kts 144°
2026-05-04 00:51 37.45861 126.44823 37 ft 0 kts 144°
2026-05-04 00:51 37.45873 126.44811 37 ft 2 kts 140°
2026-05-04 00:51 37.45885 126.44797 37 ft 2 kts 133°
2026-05-04 00:52 37.45895 126.44780 37 ft 2 kts 119°
2026-05-04 00:52 37.45905 126.44764 37 ft 2 kts 169°
2026-05-04 00:52 37.45922 126.44765 37 ft 2 kts 200°
2026-05-04 00:52 37.45937 126.44774 37 ft 2 kts 216°
2026-05-04 00:53 37.45946 126.44783 37 ft 1 kts 230°
2026-05-04 00:54 37.45945 126.44783 37 ft 2 kts 231°
2026-05-04 00:55 37.45883 126.44672 37 ft 24 kts 234°
2026-05-04 00:55 37.45788 126.44503 37 ft 24 kts 234°
2026-05-04 00:55 37.45693 126.44335 37 ft 24 kts 234°
2026-05-04 00:55 37.45598 126.44166 37 ft 24 kts 234°
2026-05-04 00:56 37.45503 126.43998 38 ft 24 kts 234°
2026-05-04 00:56 37.45405 126.43833 37 ft 24 kts 230°
2026-05-04 00:56 37.45306 126.43747 38 ft 14 kts 168°
2026-05-04 00:56 37.45219 126.43812 38 ft 15 kts 144°
2026-05-04 00:57 37.45116 126.43905 38 ft 21 kts 144°
2026-05-04 00:57 37.44998 126.44010 38 ft 21 kts 144°
2026-05-04 00:57 37.44879 126.44116 38 ft 21 kts 145°
2026-05-04 00:57 37.44760 126.44221 37 ft 21 kts 144°
2026-05-04 00:58 37.44641 126.44327 37 ft 21 kts 144°
2026-05-04 00:58 37.44546 126.44412 37 ft 12 kts 147°
2026-05-04 00:58 37.44496 126.44412 37 ft 5 kts 209°
2026-05-04 00:58 37.44494 126.44409 37 ft 0 kts 217°
2026-05-04 00:59 37.44461 126.44366 37 ft 13 kts 234°
2026-05-04 00:59 37.44432 126.44312 37 ft 7 kts 236°
2026-05-04 00:59 37.44426 126.44301 37 ft 0 kts 236°
2026-05-04 01:00 37.44400 126.44252 37 ft 16 kts 236°
2026-05-04 01:00 37.44383 126.44143 37 ft 3 kts 298°
2026-05-04 01:01 37.44401 126.44119 37 ft 4 kts 317°
2026-05-04 01:01 37.44429 126.44095 37 ft 5 kts 328°
2026-05-04 01:01 37.44445 126.44082 38 ft 1 kts 326°
2026-05-04 01:01 37.44449 126.44079 38 ft 0 kts 325°
2026-05-04 01:02 37.44642 126.43909 37 ft 92 kts 325°
2026-05-04 01:02 37.45484 126.43151 161 ft 199 kts 324°
2026-05-04 01:03 37.46709 126.42051 1405 ft 223 kts 324°
2026-05-04 01:03 37.48013 126.40960 2907 ft 229 kts 322°
2026-05-04 01:03 37.49085 126.39455 3896 ft 231 kts 305°
2026-05-04 01:03 37.50017 126.37793 4984 ft 231 kts 301°
2026-05-04 01:04 37.50386 126.35812 5971 ft 238 kts 274°
2026-05-04 01:04 37.50402 126.33710 6936 ft 244 kts 276°
2026-05-04 01:04 37.50478 126.31533 7895 ft 253 kts 277°
2026-05-04 01:04 37.50550 126.29299 8976 ft 258 kts 276°
2026-05-04 01:05 37.50615 126.27008 9978 ft 265 kts 276°
2026-05-04 01:05 37.50675 126.24646 10844 ft 279 kts 276°
2026-05-04 01:05 37.50706 126.22073 11161 ft 308 kts 269°
2026-05-04 01:05 37.50049 126.19334 11408 ft 352 kts 244°
2026-05-04 01:06 37.48302 126.17036 12200 ft 379 kts 217°
2026-05-04 01:06 37.45866 126.15641 13075 ft 389 kts 204°
2026-05-04 01:06 37.43160 126.14998 13790 ft 410 kts 181°
2026-05-04 01:06 37.40351 126.15784 14798 ft 422 kts 157°
2026-05-04 01:07 37.37871 126.17762 15794 ft 425 kts 138°
2026-05-04 01:07 37.35851 126.20516 16511 ft 435 kts 129°
2026-05-04 01:07 37.33902 126.23460 17331 ft 442 kts 129°
2026-05-04 01:07 37.31902 126.26425 18239 ft 448 kts 129°
2026-05-04 01:08 37.29856 126.29395 19051 ft 453 kts 130°
2026-05-04 01:08 37.27759 126.32388 19799 ft 460 kts 130°
2026-05-04 01:08 37.25576 126.35347 20467 ft 466 kts 136°
2026-05-04 01:08 37.23058 126.37953 21127 ft 471 kts 146°
2026-05-04 01:09 37.20260 126.40138 21990 ft 475 kts 153°
2026-05-04 01:09 37.17263 126.41888 22772 ft 477 kts 162°
2026-05-04 01:09 37.14125 126.43285 23458 ft 482 kts 165°
2026-05-04 01:09 37.10936 126.44675 24124 ft 487 kts 164°
2026-05-04 01:10 37.07720 126.46101 24872 ft 490 kts 164°
2026-05-04 01:10 37.04498 126.47566 25660 ft 494 kts 165°
2026-05-04 01:10 37.01264 126.49035 26291 ft 497 kts 165°
2026-05-04 01:10 36.97998 126.50517 26885 ft 501 kts 166°
2026-05-04 01:11 36.94741 126.52006 27450 ft 506 kts 166°
2026-05-04 01:11 36.91383 126.53532 28056 ft 509 kts 167°
2026-05-04 01:11 36.88044 126.55042 28621 ft 512 kts 168°
2026-05-04 01:11 36.84733 126.56538 29122 ft 515 kts 168°
2026-05-04 01:12 36.81355 126.58067 29590 ft 517 kts 168°
2026-05-04 01:12 36.77961 126.59605 30025 ft 520 kts 169°
2026-05-04 01:12 36.74552 126.61145 30519 ft 520 kts 170°
2026-05-04 01:12 36.71137 126.62506 31139 ft 510 kts 174°
2026-05-04 01:13 36.67738 126.63647 31887 ft 502 kts 175°
2026-05-04 01:13 36.64371 126.64752 32526 ft 498 kts 176°
2026-05-04 01:13 36.61028 126.65845 33085 ft 496 kts 176°
2026-05-04 01:13 36.57697 126.66942 33649 ft 493 kts 176°
2026-05-04 01:14 36.54392 126.68044 34000 ft 489 kts 176°
2026-05-04 01:14 36.47827 126.70237 33975 ft 490 kts 176°
2026-05-04 01:15 36.41227 126.72440 33996 ft 490 kts 177°
2026-05-04 01:15 36.34666 126.74641 33991 ft 488 kts 177°
2026-05-04 01:16 36.28114 126.76856 33992 ft 488 kts 177°
2026-05-04 01:16 36.21572 126.79059 33997 ft 487 kts 177°
2026-05-04 01:17 36.15041 126.80563 34008 ft 468 kts 188°
2026-05-04 01:17 36.08682 126.80613 34008 ft 451 kts 197°
2026-05-04 01:18 36.02454 126.79875 34018 ft 450 kts 197°
2026-05-04 01:18 35.96201 126.79165 34034 ft 450 kts 197°
2026-05-04 01:19 35.89997 126.78501 34023 ft 445 kts 198°
2026-05-04 01:19 35.83871 126.77842 34024 ft 440 kts 198°
2026-05-04 01:20 35.77783 126.77182 34029 ft 438 kts 198°
2026-05-04 01:20 35.71722 126.76523 34030 ft 437 kts 198°
2026-05-04 01:21 35.65664 126.75867 34036 ft 437 kts 198°
2026-05-04 01:21 35.59595 126.75212 34032 ft 438 kts 198°
2026-05-04 01:22 35.53514 126.74558 34031 ft 438 kts 198°
2026-05-04 01:22 35.47434 126.73906 34048 ft 439 kts 198°
2026-05-04 01:23 35.41356 126.73255 34033 ft 439 kts 198°
2026-05-04 01:23 35.35314 126.72610 34053 ft 438 kts 198°
2026-05-04 01:24 35.29256 126.71965 34051 ft 436 kts 198°
2026-05-04 01:24 35.23223 126.71321 34053 ft 434 kts 198°
2026-05-04 01:25 35.17212 126.70681 34056 ft 433 kts 198°
2026-05-04 01:25 35.11224 126.70044 34066 ft 431 kts 198°
2026-05-04 01:26 35.05257 126.69413 34060 ft 430 kts 198°
2026-05-04 01:26 34.99304 126.68781 34068 ft 429 kts 198°
2026-05-04 01:27 34.93362 126.68151 34073 ft 428 kts 198°
2026-05-04 01:27 34.87435 126.67524 34077 ft 427 kts 198°
2026-05-04 01:28 34.81514 126.66897 34074 ft 426 kts 198°
2026-05-04 01:28 34.75650 126.66278 34078 ft 426 kts 198°
2026-05-04 01:29 34.69760 126.65657 34075 ft 425 kts 198°
2026-05-04 01:29 34.63874 126.65039 34071 ft 424 kts 198°
2026-05-04 01:30 34.58011 126.64423 34068 ft 422 kts 198°
2026-05-04 01:30 34.52170 126.63810 34076 ft 420 kts 198°
2026-05-04 01:31 34.46342 126.63196 34097 ft 421 kts 198°
2026-05-04 01:31 34.40480 126.62583 34078 ft 424 kts 198°
2026-05-04 01:32 34.35588 126.62076 34078 ft 425 kts 198°
2026-05-04 01:32 34.28711 126.61360 34074 ft 424 kts 198°
2026-05-04 01:33 34.23847 126.60855 34074 ft 421 kts 198°
2026-05-04 01:33 34.18026 126.60249 34080 ft 418 kts 198°
2026-05-04 01:34 34.12246 126.59648 34084 ft 416 kts 198°
2026-05-04 01:34 34.06486 126.59047 34091 ft 415 kts 198°
2026-05-04 01:35 34.00733 126.58448 34090 ft 415 kts 198°
2026-05-04 01:35 33.94991 126.57849 34099 ft 414 kts 198°
2026-05-04 01:36 33.89243 126.57255 34093 ft 414 kts 198°
2026-05-04 01:36 33.83661 126.56179 34108 ft 401 kts 205°
2026-05-04 01:37 33.78356 126.54266 34102 ft 399 kts 210°
2026-05-04 01:37 33.73132 126.51983 34102 ft 398 kts 211°
2026-05-04 01:38 33.67968 126.49726 34100 ft 398 kts 210°
2026-05-04 01:38 33.62771 126.47471 34101 ft 398 kts 210°
2026-05-04 01:39 33.57549 126.45212 34101 ft 398 kts 210°
2026-05-04 01:39 33.52340 126.42964 34102 ft 398 kts 210°
2026-05-04 01:40 33.47127 126.40714 34101 ft 398 kts 210°
2026-05-04 01:40 33.41906 126.38466 34100 ft 399 kts 210°
2026-05-04 01:41 33.36675 126.36218 34105 ft 399 kts 210°
2026-05-04 01:41 33.31446 126.33974 34096 ft 400 kts 210°
2026-05-04 01:42 33.26205 126.31726 34100 ft 400 kts 210°
2026-05-04 01:42 33.20964 126.29482 34097 ft 400 kts 210°
2026-05-04 01:43 33.15714 126.27237 34106 ft 401 kts 210°
2026-05-04 01:43 33.10469 126.24992 34101 ft 401 kts 210°
2026-05-04 01:44 33.05216 126.22750 34100 ft 401 kts 210°
2026-05-04 01:44 32.99959 126.20511 34103 ft 401 kts 210°
2026-05-04 01:45 32.94696 126.18255 34099 ft 402 kts 210°
2026-05-04 01:45 32.86793 126.14860 34099 ft 404 kts 210°
2026-05-04 01:46 32.81533 126.12606 34102 ft 404 kts 210°
2026-05-04 01:46 32.76237 126.10341 34102 ft 405 kts 210°
2026-05-04 01:47 32.70937 126.08076 34101 ft 405 kts 210°
2026-05-04 01:47 32.65634 126.05813 34102 ft 405 kts 210°
2026-05-04 01:48 32.60327 126.03551 34101 ft 405 kts 210°
2026-05-04 01:48 32.55016 126.01290 34102 ft 406 kts 210°
2026-05-04 01:49 32.49706 125.99031 34102 ft 406 kts 210°
2026-05-04 01:49 32.44378 125.96771 34101 ft 406 kts 210°
2026-05-04 01:50 32.39060 125.94520 34102 ft 406 kts 209°
2026-05-04 01:50 32.33730 125.92266 34102 ft 407 kts 209°
2026-05-04 01:51 32.28396 125.90013 34102 ft 407 kts 209°
2026-05-04 01:51 32.23060 125.87761 34101 ft 407 kts 209°
2026-05-04 01:52 32.17721 125.85512 34099 ft 407 kts 209°
2026-05-04 01:52 32.12382 125.83265 34090 ft 408 kts 209°
2026-05-04 01:53 32.07040 125.81018 34091 ft 408 kts 209°
2026-05-04 01:53 32.01701 125.78776 34093 ft 407 kts 209°
2026-05-04 01:54 31.96364 125.76534 34087 ft 407 kts 209°
2026-05-04 01:54 31.91023 125.74289 34093 ft 408 kts 209°
2026-05-04 01:55 31.85715 125.72059 34099 ft 408 kts 209°
2026-05-04 01:55 31.80370 125.69817 34108 ft 408 kts 209°
2026-05-04 01:56 31.75025 125.67577 34111 ft 408 kts 209°
2026-05-04 01:56 31.69670 125.65336 34111 ft 408 kts 209°
2026-05-04 01:57 31.64321 125.63098 34111 ft 409 kts 209°
2026-05-04 01:57 31.58963 125.60855 34112 ft 409 kts 209°
2026-05-04 01:58 31.53588 125.58610 34110 ft 410 kts 209°
2026-05-04 01:58 31.48208 125.56359 34112 ft 411 kts 209°
2026-05-04 01:59 31.42807 125.54097 34110 ft 411 kts 209°
2026-05-04 01:59 31.37422 125.51844 34109 ft 412 kts 209°
2026-05-04 02:00 31.32026 125.49590 34111 ft 412 kts 209°
2026-05-04 02:00 31.26615 125.47333 34111 ft 413 kts 209°
2026-05-04 02:01 31.21192 125.45073 34116 ft 414 kts 209°
2026-05-04 02:01 31.15765 125.42815 34122 ft 415 kts 208°
2026-05-04 02:02 31.10317 125.40551 34121 ft 415 kts 208°
2026-05-04 02:02 31.04906 125.38304 34119 ft 416 kts 208°
2026-05-04 02:03 30.99420 125.36030 34121 ft 416 kts 208°
2026-05-04 02:03 30.93989 125.33782 34121 ft 417 kts 208°
2026-05-04 02:04 30.88514 125.31517 34115 ft 418 kts 208°
2026-05-04 02:04 30.83031 125.29251 34125 ft 418 kts 208°
2026-05-04 02:05 30.77551 125.26991 34130 ft 419 kts 208°
2026-05-04 02:05 30.72058 125.24727 34129 ft 419 kts 208°
2026-05-04 02:06 30.66562 125.22464 34130 ft 419 kts 208°
2026-05-04 02:06 30.61065 125.20202 34129 ft 420 kts 208°
2026-05-04 02:07 30.55554 125.17940 34129 ft 420 kts 208°
2026-05-04 02:07 30.50033 125.15676 34130 ft 421 kts 208°
2026-05-04 02:08 30.44512 125.13412 34131 ft 421 kts 208°
2026-05-04 02:08 30.39019 125.11166 34129 ft 421 kts 208°
2026-05-04 02:09 30.33487 125.08906 34130 ft 422 kts 208°
2026-05-04 02:09 30.27918 125.06630 34129 ft 422 kts 208°
2026-05-04 02:10 30.22422 125.04388 34129 ft 422 kts 208°
2026-05-04 02:10 30.16886 125.02132 34129 ft 422 kts 208°
2026-05-04 02:11 30.11356 124.99880 34129 ft 422 kts 208°
2026-05-04 02:11 30.05817 124.97628 34129 ft 422 kts 208°
2026-05-04 02:12 30.00275 124.95379 34128 ft 422 kts 208°
2026-05-04 02:12 29.94752 124.93055 34124 ft 424 kts 208°
2026-05-04 02:13 29.89211 124.90670 34133 ft 427 kts 208°
2026-05-04 02:13 29.83623 124.88272 34133 ft 430 kts 208°
2026-05-04 02:14 29.77998 124.85875 34128 ft 431 kts 208°
2026-05-04 02:14 29.72368 124.83480 34129 ft 431 kts 208°
2026-05-04 02:15 29.66783 124.81107 34133 ft 430 kts 208°
2026-05-04 02:15 29.61172 124.78725 34136 ft 429 kts 208°
2026-05-04 02:16 29.55572 124.76350 34139 ft 429 kts 208°
2026-05-04 02:16 29.49973 124.73979 34140 ft 429 kts 208°
2026-05-04 02:17 29.44375 124.71612 34139 ft 429 kts 208°
2026-05-04 02:17 29.38773 124.69244 34138 ft 429 kts 208°
2026-05-04 02:18 29.33161 124.66875 34139 ft 430 kts 208°
2026-05-04 02:18 29.27545 124.64508 34138 ft 430 kts 208°
2026-05-04 02:19 29.21921 124.62140 34139 ft 431 kts 208°
2026-05-04 02:19 29.17241 124.60170 34138 ft 432 kts 208°
2026-05-04 02:20 29.11591 124.57797 34139 ft 432 kts 207°
2026-05-04 02:20 29.05940 124.55424 34137 ft 433 kts 208°
2026-05-04 02:21 29.00271 124.53046 34139 ft 434 kts 207°
2026-05-04 02:21 28.93955 124.49716 34140 ft 427 kts 216°
2026-05-04 02:22 28.89813 124.46634 34145 ft 423 kts 220°
2026-05-04 02:22 28.85005 124.42741 34139 ft 425 kts 220°
2026-05-04 02:23 28.80173 124.38839 34139 ft 426 kts 220°
2026-05-04 02:23 28.75317 124.34940 34139 ft 428 kts 220°
2026-05-04 02:24 28.70467 124.31054 34141 ft 428 kts 220°
2026-05-04 02:24 28.65587 124.27150 34129 ft 429 kts 220°
2026-05-04 02:25 28.60701 124.23247 34129 ft 429 kts 220°
2026-05-04 02:25 28.55813 124.19345 34129 ft 430 kts 220°
2026-05-04 02:26 28.50920 124.15445 34129 ft 430 kts 220°
2026-05-04 02:26 28.46012 124.11534 34130 ft 431 kts 220°
2026-05-04 02:27 28.41097 124.07624 34128 ft 431 kts 220°
2026-05-04 02:27 28.36184 124.03719 34121 ft 432 kts 220°
2026-05-04 02:28 28.31124 124.00008 34125 ft 436 kts 214°
2026-05-04 02:28 28.25577 123.97107 34126 ft 441 kts 209°
2026-05-04 02:29 28.19909 123.94427 34121 ft 441 kts 209°
2026-05-04 02:29 28.14246 123.91737 34119 ft 441 kts 209°
2026-05-04 02:30 28.08595 123.89038 34119 ft 441 kts 209°
2026-05-04 02:30 28.02952 123.86342 34120 ft 440 kts 209°
2026-05-04 02:31 27.97307 123.83647 34121 ft 440 kts 209°
2026-05-04 02:31 27.91660 123.80956 34120 ft 440 kts 209°
2026-05-04 02:32 27.86047 123.78284 34120 ft 440 kts 209°
2026-05-04 02:32 27.80408 123.75603 34119 ft 440 kts 209°
2026-05-04 02:33 27.74759 123.72920 34118 ft 441 kts 209°
2026-05-04 02:33 27.69107 123.70237 34122 ft 441 kts 209°
2026-05-04 02:34 27.63482 123.67493 34122 ft 438 kts 212°
2026-05-04 02:34 27.58278 123.64007 34117 ft 433 kts 220°
2026-05-04 02:35 27.53407 123.60016 34120 ft 434 kts 220°
2026-05-04 02:35 27.48511 123.56025 34121 ft 435 kts 220°
2026-05-04 02:36 27.43588 123.52034 34120 ft 436 kts 220°
2026-05-04 02:36 27.38647 123.48038 34121 ft 437 kts 220°
2026-05-04 02:37 27.33702 123.44045 34117 ft 438 kts 220°
2026-05-04 02:37 27.28779 123.40077 34116 ft 438 kts 220°
2026-05-04 02:38 27.23792 123.36056 34121 ft 438 kts 220°
2026-05-04 02:38 27.18866 123.32090 34121 ft 439 kts 220°
2026-05-04 02:39 27.13903 123.28099 34120 ft 439 kts 220°
2026-05-04 02:39 27.08930 123.24106 34120 ft 439 kts 220°
2026-05-04 02:40 27.03954 123.20113 34119 ft 440 kts 220°
2026-05-04 02:40 26.98973 123.16122 34129 ft 440 kts 220°
2026-05-04 02:41 26.93981 123.12125 34140 ft 441 kts 220°
2026-05-04 02:41 26.88984 123.08129 34139 ft 441 kts 220°
2026-05-04 02:42 26.83983 123.04133 34138 ft 442 kts 220°
2026-05-04 02:42 26.78976 123.00139 34139 ft 442 kts 220°
2026-05-04 02:43 26.73954 122.96146 34137 ft 443 kts 220°
2026-05-04 02:43 26.68960 122.92185 34138 ft 443 kts 219°
2026-05-04 02:44 26.63933 122.88200 34139 ft 443 kts 219°
2026-05-04 02:44 26.58898 122.84211 34139 ft 444 kts 220°
2026-05-04 02:45 26.53856 122.80221 34137 ft 444 kts 220°
2026-05-04 02:45 26.48810 122.76225 34140 ft 444 kts 220°
2026-05-04 02:46 26.43773 122.72237 34139 ft 444 kts 220°
2026-05-04 02:46 26.38734 122.68249 34139 ft 444 kts 220°
2026-05-04 02:47 26.33691 122.64263 34137 ft 444 kts 220°
2026-05-04 02:47 26.28646 122.60279 34139 ft 445 kts 220°
2026-05-04 02:48 26.23588 122.56290 34138 ft 445 kts 220°
2026-05-04 02:48 26.18527 122.52305 34139 ft 446 kts 220°
2026-05-04 02:49 26.13468 122.48326 34138 ft 445 kts 220°
2026-05-04 02:49 26.08434 122.44381 34137 ft 445 kts 220°
2026-05-04 02:50 26.03369 122.40415 34139 ft 445 kts 220°
2026-05-04 02:50 25.98301 122.36449 34138 ft 445 kts 220°
2026-05-04 02:51 25.93230 122.32482 34137 ft 446 kts 220°
2026-05-04 02:51 25.88154 122.28516 34141 ft 447 kts 220°
2026-05-04 02:52 25.83069 122.24549 34137 ft 447 kts 220°
2026-05-04 02:52 25.77975 122.20578 34139 ft 447 kts 220°
2026-05-04 02:53 25.72876 122.16608 34143 ft 448 kts 220°
2026-05-04 02:53 25.67781 122.12643 34147 ft 448 kts 220°
2026-05-04 02:54 25.62767 122.08564 34148 ft 444 kts 224°
2026-05-04 02:54 25.58369 122.03820 34146 ft 440 kts 232°
2026-05-04 02:55 25.52418 121.96143 34147 ft 440 kts 232°
2026-05-04 02:56 25.48395 121.91040 34146 ft 440 kts 232°
2026-05-04 02:56 25.44367 121.85938 34150 ft 440 kts 232°
2026-05-04 02:57 25.40340 121.80835 34152 ft 440 kts 232°
2026-05-04 02:57 25.36308 121.75732 34158 ft 441 kts 232°
2026-05-04 02:58 25.32269 121.70625 34159 ft 441 kts 232°
2026-05-04 02:58 25.28223 121.65514 34155 ft 442 kts 232°
2026-05-04 02:59 25.24175 121.60404 34159 ft 442 kts 232°
2026-05-04 02:59 25.20133 121.55311 34154 ft 441 kts 232°
2026-05-04 03:00 25.16098 121.50206 34167 ft 441 kts 232°
2026-05-04 03:00 25.12121 121.45041 34161 ft 442 kts 232°
2026-05-04 03:01 25.08137 121.39852 34143 ft 443 kts 232°
2026-05-04 03:01 25.04167 121.34702 34150 ft 444 kts 232°
2026-05-04 03:02 25.00159 121.29519 34142 ft 445 kts 232°
2026-05-04 03:02 24.96142 121.24332 34135 ft 444 kts 232°
2026-05-04 03:03 24.92131 121.19153 34129 ft 444 kts 232°
2026-05-04 03:03 24.88114 121.13973 34131 ft 444 kts 232°
2026-05-04 03:04 24.84105 121.08810 34123 ft 444 kts 232°
2026-05-04 03:04 24.80091 121.03645 34123 ft 443 kts 232°
2026-05-04 03:05 24.76081 120.98489 34115 ft 444 kts 232°
2026-05-04 03:05 24.72065 120.93331 34108 ft 444 kts 232°
2026-05-04 03:06 24.68039 120.88163 34094 ft 445 kts 232°
2026-05-04 03:06 24.64010 120.82997 34090 ft 445 kts 232°
2026-05-04 03:07 24.59982 120.77837 34082 ft 445 kts 232°
2026-05-04 03:07 24.55934 120.72675 34064 ft 446 kts 231°
2026-05-04 03:08 24.51658 120.67722 34069 ft 447 kts 229°
2026-05-04 03:08 24.47323 120.62815 34058 ft 448 kts 229°
2026-05-04 03:09 24.43027 120.57937 34054 ft 448 kts 229°
2026-05-04 03:09 24.38703 120.53016 34055 ft 448 kts 229°
2026-05-04 03:10 24.34379 120.48092 34057 ft 448 kts 229°
2026-05-04 03:10 24.30751 120.43966 34056 ft 449 kts 229°
2026-05-04 03:11 24.26443 120.39071 34056 ft 449 kts 229°
2026-05-04 03:11 24.22069 120.34108 34053 ft 450 kts 229°
2026-05-04 03:12 24.17755 120.29208 34057 ft 450 kts 229°
2026-05-04 03:12 24.13395 120.24274 34050 ft 451 kts 229°
2026-05-04 03:13 24.09031 120.19341 34047 ft 451 kts 229°
2026-05-04 03:13 24.04666 120.14405 34049 ft 451 kts 229°
2026-05-04 03:14 24.00275 120.09447 34047 ft 452 kts 229°
2026-05-04 03:14 23.95933 120.04556 34046 ft 452 kts 229°
2026-05-04 03:15 23.91532 119.99603 34046 ft 451 kts 229°
2026-05-04 03:15 23.87192 119.94720 34041 ft 450 kts 229°
2026-05-04 03:16 23.82812 119.89800 34045 ft 448 kts 229°
2026-05-04 03:16 23.78473 119.84928 34046 ft 447 kts 229°
2026-05-04 03:17 23.74164 119.80093 34044 ft 447 kts 229°
2026-05-04 03:17 23.69825 119.75231 34047 ft 447 kts 229°
2026-05-04 03:18 23.65480 119.70366 34048 ft 448 kts 229°
2026-05-04 03:18 23.61145 119.65477 34050 ft 447 kts 231°
2026-05-04 03:19 23.57377 119.60106 34049 ft 445 kts 239°
2026-05-04 03:19 23.54089 119.54371 34042 ft 446 kts 239°
2026-05-04 03:20 23.50793 119.48644 34049 ft 446 kts 239°
2026-05-04 03:20 23.47493 119.42944 34046 ft 447 kts 239°
2026-05-04 03:21 23.44159 119.37204 34050 ft 448 kts 239°
2026-05-04 03:21 23.40826 119.31475 34045 ft 449 kts 239°
2026-05-04 03:22 23.37478 119.25727 34048 ft 449 kts 239°
2026-05-04 03:22 23.34126 119.19977 34043 ft 449 kts 239°
2026-05-04 03:23 23.30777 119.14239 34048 ft 449 kts 239°
2026-05-04 03:23 23.27430 119.08509 34055 ft 449 kts 239°
2026-05-04 03:24 23.24082 119.02783 34054 ft 449 kts 239°
2026-05-04 03:24 23.20723 118.97047 34056 ft 450 kts 239°
2026-05-04 03:25 23.17361 118.91312 34055 ft 450 kts 239°
2026-05-04 03:25 23.13994 118.85577 34056 ft 450 kts 239°
2026-05-04 03:26 23.10627 118.79845 34054 ft 450 kts 239°
2026-05-04 03:26 23.07258 118.74116 34056 ft 450 kts 239°
2026-05-04 03:27 23.03899 118.68411 34055 ft 450 kts 239°
2026-05-04 03:27 23.00526 118.62687 34064 ft 450 kts 239°
2026-05-04 03:28 22.97150 118.56962 34065 ft 451 kts 239°
2026-05-04 03:28 22.93761 118.51237 34063 ft 451 kts 239°
2026-05-04 03:29 22.90356 118.45517 34061 ft 452 kts 239°
2026-05-04 03:29 22.86940 118.39787 34065 ft 452 kts 239°
2026-05-04 03:30 22.83525 118.34059 34065 ft 452 kts 239°
2026-05-04 03:30 22.80105 118.28328 34065 ft 453 kts 239°
2026-05-04 03:31 22.76681 118.22593 34065 ft 453 kts 239°
2026-05-04 03:31 22.73250 118.16857 34055 ft 454 kts 238°
2026-05-04 03:32 22.69810 118.11108 34057 ft 454 kts 238°
2026-05-04 03:32 22.66364 118.05358 34064 ft 455 kts 238°
2026-05-04 03:33 22.62918 117.99612 34071 ft 455 kts 238°
2026-05-04 03:33 22.59474 117.93872 34079 ft 455 kts 239°
2026-05-04 03:34 22.56071 117.88148 34098 ft 455 kts 239°
2026-05-04 03:34 22.52647 117.82380 34103 ft 456 kts 239°
2026-05-04 03:35 22.49216 117.76610 34101 ft 456 kts 239°
2026-05-04 03:35 22.45780 117.70843 34102 ft 456 kts 239°
2026-05-04 03:36 22.42338 117.65072 34101 ft 457 kts 239°
2026-05-04 03:36 22.38893 117.59301 34102 ft 457 kts 239°
2026-05-04 03:37 22.35553 117.53470 34096 ft 455 kts 245°
2026-05-04 03:37 22.33585 117.46991 34109 ft 454 kts 258°
2026-05-04 03:38 22.33026 117.40206 34109 ft 455 kts 268°
2026-05-04 03:38 22.32965 117.33379 34101 ft 455 kts 268°
2026-05-04 03:39 22.32894 117.26549 34101 ft 454 kts 268°
2026-05-04 03:39 22.32785 117.19745 34099 ft 453 kts 267°
2026-05-04 03:40 22.32657 117.12939 34101 ft 452 kts 267°
2026-05-04 03:40 22.32525 117.06207 34100 ft 451 kts 267°
2026-05-04 03:41 22.32385 116.99412 34103 ft 452 kts 267°
2026-05-04 03:41 22.32247 116.92632 34101 ft 452 kts 267°
2026-05-04 03:42 22.32107 116.85844 34101 ft 452 kts 267°
2026-05-04 03:42 22.31963 116.79058 34102 ft 452 kts 267°
2026-05-04 03:43 22.31817 116.72267 34102 ft 452 kts 267°
2026-05-04 03:43 22.31666 116.65474 34101 ft 452 kts 267°
2026-05-04 03:44 22.31514 116.58686 34096 ft 453 kts 267°
2026-05-04 03:44 22.31359 116.51888 34092 ft 453 kts 267°
2026-05-04 03:45 22.31201 116.45090 34094 ft 453 kts 267°
2026-05-04 03:45 22.31039 116.38335 34093 ft 453 kts 267°
2026-05-04 03:46 22.30875 116.31518 34095 ft 453 kts 267°
2026-05-04 03:46 22.30710 116.24713 34090 ft 454 kts 267°
2026-05-04 03:47 22.30539 116.17903 34095 ft 454 kts 267°
2026-05-04 03:47 22.30367 116.11083 34089 ft 454 kts 267°
2026-05-04 03:48 22.30191 116.04261 34089 ft 455 kts 267°
2026-05-04 03:48 22.30012 115.97445 34094 ft 455 kts 267°
2026-05-04 03:49 22.29830 115.90600 34081 ft 455 kts 267°
2026-05-04 03:49 22.29646 115.83778 34080 ft 454 kts 267°
2026-05-04 03:50 22.29467 115.77025 34064 ft 440 kts 267°
2026-05-04 03:50 22.29380 115.73729 33308 ft 440 kts 267°
2026-05-04 03:50 22.29293 115.70418 32375 ft 441 kts 267°
2026-05-04 03:50 22.29204 115.67098 31269 ft 445 kts 267°
2026-05-04 03:51 22.29113 115.63757 30391 ft 444 kts 267°
2026-05-04 03:51 22.29023 115.60481 29553 ft 441 kts 267°
2026-05-04 03:51 22.28931 115.57131 28709 ft 438 kts 267°
2026-05-04 03:51 22.28843 115.53910 27916 ft 434 kts 267°
2026-05-04 03:52 22.28752 115.50661 27116 ft 431 kts 267°
2026-05-04 03:52 22.28662 115.47438 26319 ft 427 kts 267°
2026-05-04 03:52 22.28572 115.44248 25546 ft 424 kts 267°
2026-05-04 03:52 22.28481 115.41077 24774 ft 420 kts 267°
2026-05-04 03:53 22.28392 115.37932 24010 ft 417 kts 267°
2026-05-04 03:53 22.28302 115.34815 23256 ft 414 kts 267°
2026-05-04 03:53 22.28211 115.31721 22511 ft 411 kts 266°
2026-05-04 03:53 22.28118 115.28646 21774 ft 407 kts 266°
2026-05-04 03:54 22.28024 115.25603 21047 ft 404 kts 266°
2026-05-04 03:54 22.27931 115.22582 20330 ft 401 kts 266°
2026-05-04 03:54 22.27838 115.19582 19615 ft 398 kts 266°
2026-05-04 03:54 22.27776 115.17610 19146 ft 396 kts 266°
2026-05-04 03:55 22.27653 115.13662 18210 ft 392 kts 266°
2026-05-04 03:55 22.27592 115.11719 17744 ft 390 kts 265°
2026-05-04 03:55 22.27500 115.08797 17050 ft 388 kts 266°
2026-05-04 03:55 22.27408 115.05895 16372 ft 385 kts 266°
2026-05-04 03:56 22.27316 115.03022 15681 ft 382 kts 266°
2026-05-04 03:56 22.27225 115.00168 14989 ft 379 kts 266°
2026-05-04 03:56 22.27133 114.97333 14311 ft 376 kts 266°
2026-05-04 03:56 22.27042 114.94520 13639 ft 373 kts 266°
2026-05-04 03:57 22.26951 114.91728 12975 ft 370 kts 266°
2026-05-04 03:57 22.26859 114.88957 12312 ft 368 kts 267°
2026-05-04 03:57 22.26768 114.86210 11655 ft 365 kts 267°
2026-05-04 03:57 22.26681 114.83543 11381 ft 353 kts 267°
2026-05-04 03:58 22.26089 114.78587 11053 ft 318 kts 247°
2026-05-04 03:58 22.24986 114.76569 10904 ft 309 kts 232°
2026-05-04 03:58 22.23503 114.74886 10779 ft 313 kts 225°
2026-05-04 03:59 22.21895 114.73250 10631 ft 321 kts 224°
2026-05-04 03:59 22.20257 114.71608 10484 ft 321 kts 224°
2026-05-04 03:59 22.18646 114.69990 10322 ft 312 kts 224°
2026-05-04 03:59 22.17089 114.68415 10156 ft 302 kts 224°
2026-05-04 04:00 22.15584 114.66884 10004 ft 293 kts 224°
2026-05-04 04:00 22.14128 114.65397 9862 ft 284 kts 224°
2026-05-04 04:00 22.12699 114.63934 9737 ft 285 kts 224°
2026-05-04 04:00 22.11263 114.62461 9603 ft 285 kts 224°
2026-05-04 04:01 22.09850 114.61012 9472 ft 285 kts 224°
2026-05-04 04:01 22.08386 114.59510 9336 ft 286 kts 224°
2026-05-04 04:01 22.06937 114.58024 9176 ft 288 kts 224°
2026-05-04 04:01 22.05481 114.56531 8993 ft 288 kts 223°
2026-05-04 04:02 22.04044 114.55059 8836 ft 284 kts 223°
2026-05-04 04:02 22.02641 114.53596 8686 ft 276 kts 228°
2026-05-04 04:02 22.01637 114.51823 8556 ft 280 kts 246°
2026-05-04 04:02 22.00899 114.49862 8442 ft 285 kts 247°
2026-05-04 04:03 22.00171 114.47900 8296 ft 285 kts 247°
2026-05-04 04:03 21.99433 114.45920 8156 ft 284 kts 247°
2026-05-04 04:03 21.98693 114.43954 8017 ft 283 kts 247°
2026-05-04 04:03 21.97953 114.41992 7878 ft 282 kts 247°
2026-05-04 04:04 21.97213 114.40046 7743 ft 281 kts 247°
2026-05-04 04:04 21.96473 114.38103 7610 ft 280 kts 247°
2026-05-04 04:04 21.95731 114.36161 7474 ft 280 kts 247°
2026-05-04 04:04 21.94989 114.34225 7344 ft 280 kts 247°
2026-05-04 04:05 21.94245 114.32286 7201 ft 280 kts 247°
2026-05-04 04:05 21.93500 114.30343 7071 ft 280 kts 247°
2026-05-04 04:05 21.92763 114.28422 6923 ft 280 kts 247°
2026-05-04 04:05 21.92012 114.26466 6788 ft 279 kts 247°
2026-05-04 04:06 21.91280 114.24560 6658 ft 278 kts 247°
2026-05-04 04:06 21.90541 114.22637 6523 ft 278 kts 247°
2026-05-04 04:06 21.89826 114.20719 6377 ft 272 kts 253°
2026-05-04 04:06 21.89719 114.18701 6252 ft 275 kts 281°
2026-05-04 04:07 21.90422 114.16791 6138 ft 277 kts 298°
2026-05-04 04:07 21.91374 114.14962 6006 ft 282 kts 299°
2026-05-04 04:07 21.92341 114.13120 5877 ft 282 kts 299°
2026-05-04 04:07 21.93297 114.11294 5711 ft 278 kts 299°
2026-05-04 04:08 21.94241 114.09493 5572 ft 274 kts 299°
2026-05-04 04:08 21.95172 114.07711 5446 ft 272 kts 299°
2026-05-04 04:08 21.96099 114.05928 5317 ft 272 kts 299°
2026-05-04 04:08 21.97024 114.04144 5199 ft 273 kts 299°
2026-05-04 04:09 21.97946 114.02364 5051 ft 273 kts 300°
2026-05-04 04:09 21.98869 114.00574 4921 ft 273 kts 300°
2026-05-04 04:09 21.99788 113.98794 4788 ft 273 kts 300°
2026-05-04 04:09 22.00713 113.97000 4654 ft 273 kts 300°
2026-05-04 04:10 22.01631 113.95220 4526 ft 273 kts 300°
2026-05-04 04:10 22.02552 113.93434 4393 ft 273 kts 300°
2026-05-04 04:10 22.03480 113.91633 4258 ft 273 kts 300°
2026-05-04 04:10 22.04395 113.89856 4130 ft 274 kts 301°
2026-05-04 04:11 22.05326 113.88045 3995 ft 273 kts 301°
2026-05-04 04:11 22.06229 113.86293 3871 ft 273 kts 301°
2026-05-04 04:11 22.07128 113.84544 3734 ft 273 kts 301°
2026-05-04 04:11 22.08050 113.82753 3603 ft 273 kts 301°
2026-05-04 04:12 22.08972 113.80968 3467 ft 272 kts 302°
2026-05-04 04:12 22.09893 113.79175 3339 ft 273 kts 301°
2026-05-04 04:12 22.10980 113.77570 3184 ft 260 kts 323°
2026-05-04 04:12 22.12500 113.76651 3088 ft 242 kts 340°
2026-05-04 04:13 22.14010 113.75927 2934 ft 230 kts 339°
2026-05-04 04:13 22.15402 113.75230 2821 ft 212 kts 339°
2026-05-04 04:13 22.16684 113.74588 2729 ft 196 kts 339°
2026-05-04 04:13 22.17889 113.73987 2625 ft 185 kts 339°
2026-05-04 04:14 22.19065 113.73401 2616 ft 187 kts 339°
2026-05-04 04:14 22.20254 113.72809 2504 ft 187 kts 339°
2026-05-04 04:14 22.21425 113.72226 2351 ft 182 kts 338°
2026-05-04 04:14 22.22574 113.71673 2300 ft 180 kts 346°
2026-05-04 04:15 22.23785 113.71729 2211 ft 179 kts 30°
2026-05-04 04:15 22.24757 113.72568 2169 ft 181 kts 40°
2026-05-04 04:15 22.25725 113.73452 2061 ft 182 kts 39°
2026-05-04 04:15 22.26687 113.74329 1960 ft 180 kts 39°
2026-05-04 04:16 22.27620 113.75228 1909 ft 180 kts 50°
2026-05-04 04:16 22.28214 113.76420 1842 ft 181 kts 64°
2026-05-04 04:16 22.28736 113.77674 1723 ft 185 kts 66°
2026-05-04 04:16 22.29184 113.78972 1630 ft 184 kts 69°
2026-05-04 04:17 22.29594 113.80247 1551 ft 176 kts 70°
2026-05-04 04:17 22.29991 113.81487 1328 ft 172 kts 70°
2026-05-04 04:17 22.30365 113.82652 1110 ft 156 kts 70°
2026-05-04 04:17 22.30705 113.83709 899 ft 141 kts 70°
2026-05-04 04:18 22.31008 113.84665 612 ft 132 kts 70°
2026-05-04 04:18 22.31302 113.85575 499 ft 130 kts 69°
2026-05-04 04:18 22.31611 113.86521 384 ft 134 kts 70°
2026-05-04 04:18 22.31923 113.87479 214 ft 135 kts 71°
2026-05-04 04:19 22.32227 113.88425 81 ft 132 kts 70°
2026-05-04 04:19 22.32521 113.89335 42 ft 117 kts 69°
2026-05-04 04:19 22.32740 113.90013 42 ft 75 kts 71°
2026-05-04 04:19 22.32823 113.90395 41 ft 30 kts 90°
2026-05-04 04:20 22.32811 113.90502 41 ft 10 kts 101°
2026-05-04 04:20 22.32796 113.90582 42 ft 12 kts 102°
2026-05-04 04:20 22.32781 113.90671 42 ft 12 kts 93°
2026-05-04 04:20 22.32798 113.90773 42 ft 15 kts 86°
2026-05-04 04:21 22.32751 113.90852 42 ft 13 kts 106°
2026-05-04 04:21 22.32767 113.90950 42 ft 14 kts 71°
2026-05-04 04:21 22.32803 113.91063 42 ft 17 kts 71°
2026-05-04 04:21 22.32843 113.91186 42 ft 18 kts 70°
2026-05-04 04:22 22.32885 113.91314 42 ft 19 kts 71°
2026-05-04 04:22 22.32930 113.91457 43 ft 20 kts 71°
2026-05-04 04:22 22.32977 113.91600 42 ft 20 kts 71°
2026-05-04 04:22 22.33023 113.91745 42 ft 20 kts 71°
2026-05-04 04:23 22.33070 113.91889 42 ft 20 kts 71°
2026-05-04 04:23 22.33109 113.92023 42 ft 5 kts 87°
2026-05-04 04:23 22.33081 113.92052 42 ft 7 kts 151°
2026-05-04 04:23 22.33022 113.92076 42 ft 11 kts 161°
2026-05-04 04:24 22.32921 113.92113 42 ft 17 kts 161°
2026-05-04 04:24 22.32807 113.92157 42 ft 18 kts 160°
2026-05-04 04:24 22.32686 113.92203 42 ft 19 kts 161°
2026-05-04 04:24 22.32560 113.92250 42 ft 20 kts 161°
2026-05-04 04:25 22.32426 113.92299 42 ft 21 kts 161°
2026-05-04 04:25 22.32287 113.92352 42 ft 21 kts 160°
2026-05-04 04:25 22.32149 113.92417 42 ft 22 kts 131°
2026-05-04 04:25 22.32153 113.92510 42 ft 13 kts 71°
2026-05-04 04:26 22.32185 113.92606 42 ft 14 kts 71°
2026-05-04 04:26 22.32191 113.92674 42 ft 6 kts 115°
2026-05-04 04:26 22.32166 113.92693 42 ft 0 kts 161°
2026-05-04 04:26 22.32145 113.92700 41 ft 15 kts 161°
2026-05-04 04:27 22.31970 113.92766 41 ft 25 kts 160°
2026-05-04 04:27 22.31845 113.92817 42 ft 12 kts 158°
2026-05-04 04:27 22.31767 113.92856 42 ft 19 kts 157°
2026-05-04 04:27 22.31675 113.92891 42 ft 8 kts 161°
2026-05-04 04:28 22.31661 113.92896 42 ft 0 kts 161°
2026-05-04 04:28 22.31589 113.92922 42 ft 14 kts 161°
2026-05-04 04:28 22.31557 113.92998 42 ft 7 kts 72°
2026-05-04 04:28 22.31560 113.93006 42 ft 2 kts 73°
2026-05-04 04:29 22.31560 113.93025 42 ft 3 kts 97°
2026-05-04 04:29 22.31529 113.93048 42 ft 6 kts 163°
2026-05-04 04:29 22.31497 113.93060 42 ft 2 kts 161°
2026-05-04 04:29 22.31489 113.93063 42 ft 2 kts 161°
2026-05-04 04:30 22.31481 113.93066 42 ft 0 kts 161°
2026-05-04 04:30 22.31479 113.93067 42 ft 0 kts 161°